Location: Newark
(44.3100°N, 0.7769°W)
Time: 01:39:28
(UTC+00:00)

Envisat - Pass Details

Date: 19 November 2019
Orbit: 764 x 766 km, 98.1° (Epoch: 13 December)

Event Time Altitude Azimuth Distance (km) Brightness Sun altitude
Rises 18:55:03 0° 196° (SSW) 3,219 6.5 -25.2°
Reaches altitude 10° 18:57:40 10° 208° (SSW) 2,298 5.8 -25.7°
Maximum altitude 19:01:58 27° 266° (W) 1,428 5.0 -26.5°
Drops below altitude 10° 19:06:17 10° 324° (NW) 2,312 5.9 -27.3°
Sets 19:08:56 0° 336° (NNW) 3,243 6.5 -27.7°
